Location: Praha
(50.0830°N, 14.4670°E)
Time: 07:59:04
(UTC+02:00)

ISS - Pass Details

Date: 02 July 2022
Orbit: 414 x 420 km, 51.6° (Epoch: 02 July)

Event Time Altitude Azimuth Distance (km) Brightness Sun altitude
Exits shadow 02:35:35 19° 153° (SSE) 1,079 -2.1 -14.2°
Maximum altitude 02:36:04 19° 141° (SE) 1,060 -2.0 -14.2°
Drops below altitude 10° 02:38:32 10° 94° (E) 1,498 -0.7 -14.1°
Sets 02:41:01 0° 76° (ENE) 2,367 0.6 -13.9°
